Showing default

GJZ 04, 62293

Orbit data source: Space-Track

GJZ 04, 62293 is a payload satellite owned by CASC (CN) in LEO that was launched on Thu, 12 Dec 2024 UTC via a CHANG ZHENG 2D/YZ-3 launch vehicle from the Jiuquan Satellite Launch Center, China (JSC). Payload-class satellites include a variety of spacecraft equipped with specific instruments for various scientific and technological missions. These include communications satellites like Starlink; space stations such as the ISS; scientific satellites like the Hubble; Earth observation satellites from companies like Planet Labs, Umbra, and HawkEye 360; GPS; miniature CubeSats for education and research; and military/defense satellites.

Loading next visibility...
Identifier
62293, 2024-238D
Orbit
LEO
Country
Flag of CNCN / PRC
Related business
Manufacturer
HITSAT
Mission
Operational Civil Communications
Bus & Motor
HARBFLAT, Unknown motor
Mass
~150 kg wet, ~150 kg dry
Launch date (UTC)
2024-12-12 (1 year ago)
Launch vehicle
CHANG ZHENG 2D/YZ-3
Launch site
Jiuquan Satellite Launch Center, China (JSC)
Object type
Payload
Rocket body
Debris
Shape & HBR
Box + 2 Pan, 1.5 m
Radar Cross Section
0.240 m², Large (>1 m²)

Expand to show TLE details & history
Last TLE update: 6 hours ago

TLE from 6 hours ago
0 GJZ 04
1 62293U 24238D   26126.25187539  .00000002  00000-0  12592-3 0  9992
2 62293  59.9153  37.9803 0010456 342.3457  17.7186 13.75193394 70147
Epoch: 2026-05-06T06:02Z
TLE epoch observation values (Epoch: 2026-05-06T06:02:42.033Z)
Latitude
-0.00003°
Longitude
83.1901°
Altitude
975.141 km
Speed
7.368 km/s
True Right ascension
02h 31m 55s
True Declination
0° 00' 00"
Sunlit
Object was in daylight at epoch
Visualization orbit readout
Latitude
Unknown
Longitude
Unknown
Altitude
Unknown
Speed
Unknown
Apparent Right ascension
Unknown
Apparent Declination
Unknown
Sunlit
N/A
Visualization observer readout
Local Sidereal Time
19:36:18
Azimuth
Unknown
Elevation
Unknown
Doppler factor
Unknown
Orbital elements
Apogee altitude
987.947 km
Perigee altitude
972.559 km
Semi-major axis
7,358.39 km
Eccentricity
0.00105
Inclination
59.9153°
RAAN
37.9803°
Arg. of periapsis
342.3457°
True anomaly
17.75511°
Mean anomaly
17.7186°
Eccentric anomaly
17.73685°
Mean motion
3.4385 °/min
Orbital period
104.7 mins
BSTAR
0.00012592
Loading maneuver chart data...
Computing Atmospheric mass density...
Loading historical data...
Loading historical data...
Loading historical data...
Loading historical data...
Loading historical data...
Loading historical data...
Loading historical data...
Other satellites on launch #238 in the year 2024 (2024-12-12 UTC)

Documentation

Showing up to 5 results
|